Dewpoint
57 57 57 57 56 56 55 55 55 56 55 54 54 55 55 54 44 6 4 19 37 55 59 44 19 11 10 11 13 12 9 10 13 12 12 14 13 16 17 16 18 20 21 22 23
56 57 57 57 56 55 55 55 55 55 54 53 53 54 55 53 10 -4 40 55 57 60 25 10 12 12 12 12 12 11 10 10 12 12 11 13 15 17 16 17 17 17 18 17 19
56 56 56 56 56 55 55 53 54 54 54 54 54 54 51 37 3 -5 47 54 57 55 23 16 13 12 11 12 13 12 10 11 11 9 9 8 10 12 13 10 12 13 12 13 13
55 55 56 56 56 54 55 54 54 53 53 52 53 56 53 22 -7 -4 53 56 57 48 21 13 12 11 10 10 10 7 8 8 6 6 7 6 8 10 11 11 13 12 12 12 14
55 55 55 56 55 54 53 53 52 51 51 51 53 56 18 -1 -2 -0 50 37 27 11 12 10 8 11 10 8 6 4 5 5 6 7 6 7 9 8 11 11 11 11 13 12 11
55 55 55 55 54 54 53 51 48 48 49 51 50 47 5 -6 -4 1 0 3 7 9 9 9 10 11 10 9 7 6 5 4 4 6 7 6 7 11 12 11 11 11 11 10 10
55 54 54 53 53 54 53 51 49 49 50 51 52 19 3 1 -3 -2 0 0 2 11 9 10 10 9 10 8 7 6 4 5 5 5 2 8 6 8 11 11 9 8 9 9 10
54 54 54 53 53 53 52 52 51 50 51 52 52 14 4 5 8 -4 -4 -1 3 4 7 12 13 12 9 8 6 4 5 -1 1 4 2 6 7 4 9 8 8 6 4 5 7
54 54 54 53 52 52 52 51 51 51 50 49 26 11 3 23 3 1 -3 -5 1 4 7 5 10 10 9 6 3 4 -1 -0 -1 -0 1 2 3 4 4 3 1 3 4 3 5
54 54 54 53 52 51 50 51 47 48 36 20 10 10 5 2 5 2 3 3 4 14 8 9 11 8 7 5 3 5 4 1 1 1 3 -0 -1 5 4 2 3 3 3 4 5
54 54 54 53 53 51 43 35 28 22 10 7 7 5 2 3 5 4 7 8 14 12 8 9 7 6 8 7 7 8 8 5 3 4 7 5 5 3 4 4 11 2 2 4 8
54 54 54 53 52 51 45 32 33 35 17 8 7 6 7 6 6 5 8 10 15 9 10 7 5 5 7 9 10 9 8 8 6 5 5 3 3 4 2 1 10 1 3 8 8
53 53 53 52 52 48 42 41 45 44 26 17 11 10 11 8 5 4 7 8 8 9 7 6 7 7 8 7 10 9 8 7 6 3 4 5 8 0 2 2 5 10 12 10 7
53 52 52 51 46 45 42 44 46 49 28 14 13 12 12 16 9 6 8 11 10 9 11 6 6 8 10 7 8 13 9 8 7 7 7 6 9 7 4 13 13 13 12 12 9
52 52 52 51 48 44 46 49 48 52 21 12 9 14 11 11 10 9 10 13 9 13 14 12 8 7 8 10 10 11 13 10 10 8 11 10 6 12 18 14 12 12 13 14 20
52 52 52 51 52 51 54 54 52 39 16 14 10 13 13 12 12 9 13 16 16 14 7 6 6 7 8 8 9 10 11 12 11 11 14 12 8 18 20 16 13 14 15 14 10
52 52 50 51 51 54 57 51 28 23 18 9 13 13 15 15 13 12 17 14 12 14 16 6 7 6 10 13 15 14 18 18 12 13 14 19 16 23 21 17 17 19 16 12 11
51 50 56 51 55 58 55 41 12 17 13 10 11 14 18 14 17 15 16 13 12 13 14 14 12 9 11 14 14 11 17 20 13 18 19 21 16 26 22 18 21 20 20 13 10
50 52 56 56 56 58 50 28 25 17 9 13 10 13 15 14 14 15 14 12 10 13 16 18 14 8 9 11 14 14 14 15 18 23 21 23 28 30 20 22 23 23 23 16 10
48 52 51 53 56 55 44 36 27 14 11 11 16 17 18 15 17 18 19 16 13 13 17 21 16 14 8 11 14 16 16 19 25 22 17 22 22 26 24 23 24 25 23 17 12
51 46 51 52 56 48 37 34 27 13 16 22 21 17 18 20 16 17 20 17 13 18 18 22 21 21 16 15 16 14 16 24 23 23 20 16 21 35 24 25 25 24 23 17 13
50 42 51 54 45 44 36 30 27 15 21 23 23 23 21 19 18 20 22 21 19 22 24 24 21 21 20 19 14 15 19 20 21 21 23 23 22 30 24 23 29 27 25 21 14
50 43 49 51 34 35 35 32 22 19 20 21 24 25 24 22 20 24 26 21 20 26 30 26 22 22 18 20 19 17 18 18 23 25 21 20 23 28 25 30 31 30 28 25 22
49 39 42 41 39 37 36 30 24 27 24 21 24 21 24 23 22 23 26 23 21 25 32 30 25 25 22 22 27 24 24 20 21 22 23 25 25 28 30 30 30 34 31 28 23
49 46 41 34 35 37 34 33 32 26 25 23 23 22 22 22 23 24 26 23 24 33 24 25 25 28 28 27 24 24 23 24 22 23 21 22 24 25 27 30 31 35 33 29 25
46 44 46 34 35 32 34 32 31 28 26 24 22 25 25 21 25 25 27 28 26 25 24 27 24 27 26 27 27 24 25 23 22 24 23 22 22 25 26 29 34 33 33 31 28
51 49 42 41 38 35 35 34 32 32 30 27 28 27 28 31 32 32 30 30 31 28 26 29 28 26 23 28 27 23 28 28 27 25 26 25 27 33 32 34 35 34 36 34 30
Lifted_Index
7 7 7 8 9 9 10 10 10 10 9 9 9 9 9 9 8 7 7 7 7 6 5 5 5 5 4 4 4 4 3 4 5 5 6 7 8 8 8 8 8 10 11 11 11
8 8 8 8 9 9 10 10 10 10 9 9 9 9 9 8 8 7 7 7 7 6 5 5 5 5 4 4 4 3 4 5 6 6 6 7 7 8 8 8 8 10 11 12 12
9 8 8 8 9 10 10 10 10 10 9 9 8 8 8 7 6 7 7 7 7 6 6 6 6 5 4 4 4 4 4 6 7 7 7 7 8 8 8 8 9 10 11 12 12
9 9 8 9 9 10 10 10 10 9 9 9 8 8 7 6 6 7 8 7 7 6 6 6 6 5 4 4 4 4 5 7 7 8 8 8 8 8 9 10 11 12 12 12 12
9 9 9 9 10 10 10 10 10 9 9 8 8 8 7 6 7 8 8 7 7 6 6 6 6 5 5 5 5 6 6 7 8 8 8 8 8 8 9 10 12 12 12 12 12
9 9 9 9 10 10 10 10 9 9 9 8 8 8 7 6 8 9 9 8 7 7 6 6 7 6 6 6 6 6 6 7 8 8 9 8 8 8 9 10 11 12 12 11 11
9 9 9 9 10 10 10 10 9 9 9 9 9 8 7 7 9 9 9 8 8 7 7 7 7 7 7 7 7 7 6 6 7 8 8 8 7 8 9 10 10 11 11 11 11
9 9 9 9 9 9 9 9 9 9 9 9 9 8 7 8 9 9 9 8 8 7 7 7 7 7 7 7 7 7 6 6 6 7 8 8 7 7 8 9 9 10 10 11 11
9 9 9 9 9 9 9 9 9 9 9 8 8 7 7 8 9 9 8 8 7 7 7 8 7 7 7 6 6 6 5 5 5 7 8 7 7 8 8 9 9 10 10 10 10
9 9 9 9 9 9 8 7 8 8 8 8 8 7 7 8 8 8 8 7 7 7 7 7 6 6 6 5 5 4 4 4 5 6 7 7 7 8 9 9 9 9 10 10 10
9 9 9 8 8 7 7 6 7 7 7 7 7 7 7 8 8 8 8 7 7 6 6 6 5 4 5 5 5 4 4 4 5 6 6 7 7 8 8 8 8 9 9 9 9
9 9 8 7 6 6 5 5 5 6 6 7 7 7 7 7 7 7 7 7 6 6 5 5 4 4 5 5 5 4 4 4 5 6 6 6 7 7 8 8 8 8 9 8 8
9 9 8 6 5 4 4 4 4 4 5 6 7 7 7 7 6 6 7 6 6 5 5 4 4 5 5 5 4 4 4 4 4 5 6 6 6 6 7 7 7 8 8 8 8
9 9 8 6 4 4 4 4 4 3 3 5 6 6 7 6 6 7 7 6 5 5 4 4 4 4 4 4 4 4 4 4 4 4 5 5 5 5 5 6 6 7 7 8 8
9 9 8 6 4 3 3 3 3 2 2 4 5 6 6 6 6 6 7 6 5 5 4 4 4 4 4 4 4 4 4 4 4 4 4 4 4 4 5 5 6 7 8 8 8
9 8 7 5 3 2 2 2 2 1 2 4 5 5 5 5 5 6 6 6 5 4 4 4 4 4 4 4 4 4 3 3 3 3 3 3 4 4 4 5 6 7 7 8 8
9 7 5 4 2 2 2 2 2 2 3 4 4 4 4 4 5 5 5 5 4 4 3 4 4 4 4 4 4 4 3 2 2 1 2 3 3 3 4 5 6 7 7 8 8
9 7 4 3 2 2 1 2 2 3 4 4 4 4 4 4 4 4 4 4 4 4 3 3 3 3 4 4 4 4 3 2 1 1 1 2 3 3 4 5 6 6 7 7 8
7 5 3 3 2 1 1 2 3 4 4 4 4 4 4 4 4 4 4 4 4 4 4 3 2 3 4 4 4 4 3 3 2 1 1 2 2 3 4 5 5 6 7 7 8
5 4 3 3 2 1 1 2 3 4 4 4 4 3 4 4 4 4 4 4 4 5 4 4 3 3 4 4 4 4 3 3 3 2 1 1 2 3 3 4 5 6 7 7 7
4 4 3 3 2 2 2 3 4 4 5 4 4 4 4 4 4 4 4 4 5 5 5 4 3 3 4 4 4 4 3 3 3 2 1 1 2 2 3 4 5 6 6 7 7
3 3 4 3 2 2 3 3 4 5 5 5 4 4 4 4 4 4 4 4 5 5 5 4 4 3 3 4 4 4 4 4 3 3 2 2 2 3 4 4 5 6 6 7 7
3 3 4 4 3 3 3 4 4 5 6 6 5 5 4 4 4 4 4 5 5 5 5 5 4 3 3 3 4 4 4 4 4 3 3 2 2 3 4 4 5 6 6 6 7
2 3 4 4 4 3 4 4 5 6 6 6 6 6 5 5 4 5 5 5 5 6 6 6 4 3 3 3 4 4 4 4 4 3 3 2 3 4 4 5 5 5 6 6 7
2 2 3 4 4 4 4 4 5 5 6 6 6 6 5 5 5 5 5 5 5 6 6 6 5 4 4 4 4 4 4 4 4 4 3 3 3 4 5 5 5 5 6 6 7
2 2 3 4 4 4 4 4 5 5 5 6 6 6 6 5 5 5 5 5 5 6 6 6 5 4 4 4 4 3 3 4 4 4 4 4 4 4 4 5 5 5 6 6 6
3 3 3 3 3 4 4 4 4 5 5 5 6 6 6 5 5 5 5 5 5 6 6 6 5 4 3 4 4 3 3 4 4 4 4 4 4 4 4 4 5 5 6 6 6